Вернуться в каталог

STARLINK-11266

АктивенСвязьVLEO
NORAD 60732·PAYLOAD·🇺🇸 United States

Запущен Aug 28, 2024 с Cape Canaveral Space Force Station

Loading…

Ближайшие Пролёты (ближайшие 24 часа)

TLE

СвежийSource: CelesTrak SupGP

Эпоха: Sep 14, 2026, 21:33 UTC

1 60732C 24152N   26257.89840278  .00028123  00000+0  23171-3 0  2579
2 60732  53.1569 263.1461 0001082  86.3497  49.3073 15.69690200    15

Отслеживайте STARLINK-11266 в реальном времени с AllMySat

Download on the App Store